Location: Ch�risy
(50.2331°N, 2.9131°E)
Time: 20:08:52
(UTC+00:00)

ATLAS 2AS CENTAUR R/B - Pass Details

Date: 17 January 2021
Orbit: 947 x 1265 km, 63.7° (Epoch: 13 February)

Event Time Altitude Azimuth Distance (km) Brightness Sun altitude
Rises 20:25:49 0° 283° (WNW) 4,221 6.7 -39.0°
Reaches altitude 10° 20:29:07 10° 294° (WNW) 3,239 5.9 -39.5°
Enters shadow 20:35:27 30° 348° (NNW) 2,046 4.3 -40.4°
